[[{"header":{"parameterUnit":"m.s-1","parameterCategory":1,"la1":30.2991,"la2":30.254,"lo1":-89.0895,"lo2":-89.0444,"dy":0.0017,"dx":0.0017,"nx":28,"ny":28,"refTime":"2025-08-03T09:00:00:Z","depth":0,"parameterNumber":2,"parameterNumberName":"U-component_of_WINDS"},"data":[0,0,0,0,0,0,0,0,0,0,0,0,0,0,0,0,0,0,0,0,0,0,0,0,0,0,0,0,0,0,0,0,0,0,0,0,0,0,0,0,0,0,0,0,0,0,0,0,0,0,0,0,0,0,0,0,0,0,-0.7879,-0.7879,0,-0.7901,-0.7902,-0.7902,-0.786,-0.7859,-0.7858,-0.7856,-0.7881,-0.7883,-0.7885,0,0,0,0,0,0,0,0,0,0,0,0,0,-0.7801,-0.7803,-0.7879,-0.7879,-0.788,-0.7901,-0.7902,-0.7902,-0.7861,-0.7859,-0.7857,-0.7856,-0.788,-0.7882,-0.7885,0,0,0,0,0,0,0,0,0,0,0,0,0,-0.7831,-0.7803,-0.7879,-0.7862,-0.786,-0.7901,-0.7902,-0.7902,-0.7861,-0.7859,-0.7857,-0.7855,-0.7879,-0.7882,-0.7885,-0.7945,0,0,-0.7894,-0.7895,0,0,0,0,0,0,0,0,-0.7829,-0.7833,-0.7864,-0.7863,-0.7862,-0.7876,-0.7883,-0.7916,-0.7862,-0.7861,-0.7856,-0.7854,-0.7881,-0.7884,-0.7892,-0.7946,-0.7947,-0.7894,-0.7896,-0.7897,-0.7898,0,0,0,0,0,0,0,-0.7827,-0.7832,-0.7888,-0.7864,-0.7863,-0.7853,-0.7855,-0.7889,-0.7882,-0.7861,-0.7858,-0.7861,-0.788,-0.789,-0.7893,-0.7947,-0.7894,-0.7897,-0.7898,-0.79,-0.8048,-0.805,0,0,0,0,0,0,-0.7827,-0.7831,-0.7887,-0.7889,-0.784,-0.7856,-0.7858,-0.7873,-0.7882,-0.7881,-0.7863,-0.7859,-0.7886,-0.7889,-0.7893,-0.7962,-0.7897,-0.79,-0.7902,-0.8046,-0.8048,-0.8051,0,0,0,0,0,0,-0.7825,-0.7832,-0.7886,-0.7859,-0.7865,-0.7859,-0.7877,-0.7875,-0.7885,-0.7883,-0.7882,-0.7874,-0.7884,-0.7889,-0.7931,-0.7962,-0.7901,-0.7904,-0.8043,-0.8046,-0.8049,-0.81,0,0,0,0,0,0,-0.7823,-0.7832,-0.7855,-0.786,-0.7867,-0.7924,-0.7879,-0.7877,-0.789,-0.7885,-0.7893,-0.7893,-0.7883,-0.7927,-0.7934,-0.7965,-0.7906,-0.804,-0.8044,-0.8048,-0.8096,-0.8105,-0.8113,0,0,0,0,0,-0.7821,-0.7869,-0.7856,-0.7863,-0.7895,-0.7926,-0.793,-0.7917,-0.7892,-0.7915,-0.7913,-0.7893,-0.7958,-0.7932,-0.794,-0.7972,-0.8038,-0.8043,-0.8048,-0.8092,-0.8103,-0.8113,0,0,0,0,0,0,-0.7869,-0.787,-0.7855,-0.7907,-0.7917,-0.7919,-0.7947,-0.793,-0.7948,-0.7943,-0.7926,-0.7929,-0.7974,-0.7977,-0.7948,-0.8028,-0.7994,-0.8,-0.8025,-0.8035,-0.8043,-0.8042,-0.7909,0,0,0,0,0,-0.7886,-0.7911,-0.791,-0.7956,-0.7961,-0.7953,-0.7967,-0.7956,-0.7966,-0.797,-0.7972,-0.7982,-0.8005,-0.802,-0.8041,-0.8096,-0.8097,-0.8122,-0.813,-0.8137,-0.8143,-0.817,-0.8181,-0.8067,-0.8067,-0.8067,0,0,-0.7921,-0.7924,-0.7941,-0.7965,-0.7972,-0.7998,-0.7957,-0.7987,-0.8006,-0.7975,-0.8014,-0.8016,-0.8026,-0.8075,-0.8096,-0.8079,-0.8174,-0.8143,-0.8149,-0.8151,-0.8176,-0.8187,-0.8197,-0.807,-0.8069,-0.8069,0,0,-0.7997,-0.8003,-0.804,-0.8047,-0.8056,-0.805,-0.8059,-0.8064,-0.8064,-0.8103,-0.8079,-0.8101,-0.8141,-0.8149,-0.8158,-0.8235,-0.8216,-0.8243,-0.8286,-0.8313,-0.8322,-0.833,-0.8356,-0.8366,-0.8248,-0.8249,-0.8249,0,-0.8039,-0.8077,-0.8062,-0.8092,-0.8103,-0.8074,-0.8112,-0.8119,-0.8136,-0.8144,-0.8124,-0.8171,-0.8177,-0.8225,-0.8244,-0.8253,-0.8262,-0.8241,-0.8322,-0.833,-0.8337,-0.8362,-0.8372,-0.8252,-0.8251,-0.8251,-0.8251,0,-0.8128,-0.8155,-0.8184,-0.8198,-0.8213,-0.8247,-0.8236,-0.8252,-0.8239,-0.8236,-0.8275,-0.828,-0.83,-0.8311,-0.83,-0.8358,-0.8346,-0.8325,-0.8289,-0.8351,-0.8374,-0.8383,-0.8256,-0.8255,-0.8254,-0.8253,0,0,-0.8237,-0.8241,-0.8252,-0.8257,-0.8264,-0.8285,-0.8317,-0.8336,-0.8349,-0.8361,-0.8387,-0.842,-0.84,-0.841,-0.8399,-0.8423,-0.8481,-0.8398,-0.8398,-0.8412,-0.8544,-0.8559,-0.857,-0.8469,-0.8471,-0.8472,-0.8542,0,-0.8311,-0.8366,-0.8351,-0.8406,-0.8429,-0.8401,-0.8429,-0.8436,-0.8433,-0.8453,-0.8449,-0.8472,-0.8444,-0.845,-0.8472,-0.847,-0.8507,-0.8465,-0.8492,-0.8493,-0.8489,-0.8582,-0.8599,-0.8666,-0.8551,-0.8553,-0.8554,0,-0.8406,-0.8419,-0.8475,-0.8477,-0.8486,-0.8511,-0.8526,-0.8546,-0.8553,-0.8549,-0.856,-0.8543,-0.8574,-0.8539,-0.8581,-0.8552,-0.8562,-0.8563,-0.8565,-0.8566,-0.8527,-0.8585,-0.8687,-0.8696,-0.8568,-0.8567,-0.8566,0,-0.8477,-0.851,-0.8547,-0.8553,-0.8556,-0.8574,-0.8576,-0.8581,-0.8593,-0.8606,-0.8613,-0.8631,-0.864,-0.8653,-0.8642,-0.8618,-0.8685,-0.8649,-0.8682,-0.8682,-0.8697,-0.8696,-0.88,-0.8706,-0.8706,-0.8705,-0.8705,0,-0.8562,-0.8597,-0.8579,-0.8602,-0.864,-0.8623,-0.8661,-0.866,-0.8665,-0.8686,-0.8664,-0.8685,-0.8669,-0.8688,-0.868,-0.8715,-0.872,-0.8716,-0.8714,-0.8718,-0.8718,-0.8724,-0.8719,-0.8708,-0.8707,-0.8707,-0.8707,0,-0.8648,-0.8638,-0.8676,-0.8675,-0.8675,-0.8703,-0.8702,-0.8723,-0.8718,-0.8745,-0.8751,-0.8743,-0.8764,-0.8754,-0.8777,-0.8771,-0.8816,-0.8808,-0.8813,-0.881,-0.8843,-0.8839,-0.8954,-0.8967,-0.8865,-0.8866,-0.8867,0,-0.8702,-0.8728,-0.8729,-0.8741,-0.8744,-0.8765,-0.8776,-0.876,-0.8773,-0.8782,-0.8801,-0.8821,-0.8835,-0.8871,-0.8867,-0.8884,-0.8875,-0.8913,-0.8877,-0.888,-0.8873,-0.8871,-0.8873,-0.8921,-0.8922,-0.8923,-0.8924,0,-0.8798,-0.8791,-0.8807,-0.8821,-0.8835,-0.8846,-0.8854,-0.8866,-0.885,-0.8865,-0.8886,-0.8897,-0.892,-0.8939,-0.8953,-0.8955,-0.8937,-0.8935,-0.8943,-0.8947,-0.8949,-0.8947,-0.8831,-0.8932,-0.8931,-0.8931,-0.893,-0.893,-0.8868,-0.8889,-0.8892,-0.8911,-0.8915,-0.8924,-0.8942,-0.8939,-0.8956,-0.8972,-0.8962,-0.8986,-0.8991,-0.9008,-0.9013,-0.9031,-0.9016,-0.9028,-0.9031,-0.9034,-0.9037,-0.8947,-0.9034,-0.9034,-0.9033,-0.9033,-0.9033,0,-0.8962,-0.8962,-0.8979,-0.8991,-0.9005,-0.8985,-0.8994,-0.9007,-0.9028,-0.9034,-0.9048,-0.9072,-0.9089,-0.9086,-0.9102,-0.9118,-0.9109,-0.9122,-0.912,-0.9121,-0.9051,-0.9042,-0.9129,-0.9129,-0.9129,-0.9129,-0.9129,-0.9129,-0.9012,-0.9045,-0.9038,-0.9073,-0.9073,-0.9096,-0.9102,-0.9109,-0.9114,-0.914,-0.9155,-0.9152,-0.9154,-0.917,-0.9185,-0.9183,-0.919,-0.9206,-0.9201,-0.9136,-0.9126,-0.9117,-0.9108,-0.9208,-0.9208,-0.9269,-0.927,-0.927]},{"header":{"parameterUnit":"m.s-1","parameterCategory":1,"la1":30.2991,"la2":30.254,"lo1":-89.0895,"lo2":-89.0444,"dy":0.0017,"dx":0.0017,"nx":28,"ny":28,"refTime":"2025-08-03T09:00:00:Z","depth":0,"parameterNumber":3,"parameterNumberName":"V-component_of_WINDS"},"data":[0,0,0,0,0,0,0,0,0,0,0,0,0,0,0,0,0,0,0,0,0,0,0,0,0,0,0,0,0,0,0,0,0,0,0,0,0,0,0,0,0,0,0,0,0,0,0,0,0,0,0,0,0,0,0,0,0,0,-2.0028,-2.0028,0,-1.9964,-1.9963,-1.9962,-1.9927,-1.9927,-1.9927,-1.9926,-1.9858,-1.9856,-1.9854,0,0,0,0,0,0,0,0,0,0,0,0,0,-2.0117,-2.0116,-2.0028,-2.0028,-2.0027,-1.9964,-1.9963,-1.9962,-1.9927,-1.9927,-1.9927,-1.9926,-1.9858,-1.9856,-1.9854,0,0,0,0,0,0,0,0,0,0,0,0,0,-2.0068,-2.0115,-2.0029,-2.0002,-1.9999,-1.9964,-1.9963,-1.9962,-1.9927,-1.9927,-1.9926,-1.9926,-1.9859,-1.9857,-1.9854,-1.9841,0,0,-1.9846,-1.9845,0,0,0,0,0,0,0,0,-2.0071,-2.0065,-2.0006,-2.0003,-2.0,-1.9953,-1.9969,-1.9921,-1.9927,-1.9954,-1.9926,-1.9926,-1.989,-1.9884,-1.9873,-1.9837,-1.9835,-1.9846,-1.9844,-1.9843,-1.9842,0,0,0,0,0,0,0,-2.0074,-2.0067,-2.0003,-2.0006,-2.0002,-1.9991,-1.9984,-1.996,-1.9923,-1.9952,-1.9949,-1.9942,-1.9888,-1.9875,-1.9871,-1.9834,-1.9846,-1.9844,-1.9842,-1.9841,-1.978,-1.978,0,0,0,0,0,0,-2.0082,-2.007,-2.0005,-2.0001,-2.0036,-1.999,-1.9982,-1.9968,-1.9923,-1.9917,-1.9942,-1.994,-1.988,-1.9874,-1.9868,-1.9847,-1.9843,-1.9841,-1.9839,-1.9781,-1.978,-1.978,0,0,0,0,0,0,-2.0085,-2.0077,-2.0007,-2.0035,-2.0025,-1.9989,-1.9973,-1.9967,-1.9955,-1.9916,-1.9909,-1.9936,-1.9879,-1.9872,-1.9847,-1.9844,-1.984,-1.9837,-1.9781,-1.978,-1.978,-1.9807,0,0,0,0,0,0,-2.0087,-2.0078,-2.0074,-2.0035,-2.0024,-1.9989,-1.9973,-1.9966,-1.995,-1.9948,-1.9909,-1.9902,-1.9879,-1.9851,-1.9845,-1.9841,-1.9835,-1.9781,-1.9781,-1.978,-1.9806,-1.9808,-1.9809,0,0,0,0,0,-2.0091,-2.0084,-2.0074,-2.0066,-2.0018,-1.9989,-1.9982,-1.9956,-1.995,-1.9945,-1.992,-1.9903,-1.9846,-1.9849,-1.9841,-1.9837,-1.9781,-1.9781,-1.978,-1.9806,-1.9808,-1.9809,0,0,0,0,0,0,-2.0123,-2.0079,-2.0067,-2.0048,-2.0022,-1.9983,-1.9976,-1.996,-1.9935,-1.9933,-1.9901,-1.9892,-1.987,-1.9851,-1.9855,-1.982,-1.9811,-1.981,-1.9833,-1.9835,-1.9836,-1.9841,-1.9833,0,0,0,0,0,-2.0128,-2.0109,-2.0071,-2.0058,-2.0046,-2.0013,-1.9999,-1.9981,-1.9953,-1.9942,-1.9915,-1.9888,-1.9863,-1.9848,-1.9824,-1.9803,-1.9793,-1.9796,-1.9798,-1.9799,-1.9798,-1.9782,-1.9783,-1.978,-1.978,-1.978,0,0,-2.0138,-2.0111,-2.0102,-2.0064,-2.0042,-2.0021,-2.0004,-1.9984,-1.9968,-1.9939,-1.9914,-1.9893,-1.986,-1.9837,-1.9825,-1.982,-1.9796,-1.9799,-1.98,-1.9798,-1.9782,-1.9783,-1.9783,-1.978,-1.978,-1.978,0,0,-2.0146,-2.0125,-2.011,-2.0089,-2.0056,-2.0034,-2.003,-1.9993,-1.9978,-1.9952,-1.9929,-1.9908,-1.9868,-1.9844,-1.9827,-1.9823,-1.9806,-1.9816,-1.9824,-1.981,-1.981,-1.981,-1.9806,-1.9806,-1.9815,-1.9815,-1.9815,0,-2.0162,-2.0132,-2.0105,-2.0085,-2.0068,-2.0041,-2.0024,-2.0004,-1.9965,-1.9953,-1.9948,-1.9894,-1.987,-1.984,-1.9839,-1.9826,-1.9819,-1.982,-1.9812,-1.9812,-1.9811,-1.9808,-1.9807,-1.9816,-1.9816,-1.9816,-1.9816,0,-2.0153,-2.0132,-2.0124,-2.0086,-2.0068,-2.0051,-2.0019,-2.0003,-1.9986,-1.9964,-1.9936,-1.9906,-1.9874,-1.9865,-1.9849,-1.9832,-1.9829,-1.9819,-1.981,-1.9813,-1.9809,-1.9808,-1.9818,-1.9818,-1.9817,-1.9817,0,0,-2.018,-2.0127,-2.0124,-2.0105,-2.0066,-2.0049,-2.0028,-1.9997,-1.9984,-1.9957,-1.9938,-1.9902,-1.9892,-1.9872,-1.9852,-1.984,-1.9835,-1.983,-1.9828,-1.983,-1.9812,-1.9819,-1.9818,-1.9824,-1.9824,-1.9823,-1.9814,0,-2.0181,-2.0145,-2.0118,-2.0092,-2.007,-2.0043,-2.0025,-1.9998,-1.9976,-1.9953,-1.9928,-1.9903,-1.9892,-1.9879,-1.9866,-1.9839,-1.9831,-1.9839,-1.9804,-1.9803,-1.9812,-1.9816,-1.9825,-1.9818,-1.9812,-1.9812,-1.9812,0,-2.0178,-2.0151,-2.0123,-2.0083,-2.0073,-2.0058,-2.0026,-2.0005,-1.9973,-1.9957,-1.9934,-1.9913,-1.9888,-1.9882,-1.9846,-1.9852,-1.9836,-1.982,-1.9819,-1.9814,-1.9807,-1.981,-1.9815,-1.9813,-1.9809,-1.981,-1.981,0,-2.0198,-2.0156,-2.0132,-2.0118,-2.0072,-2.0061,-2.0041,-2.0009,-1.9991,-1.9962,-1.9949,-1.9918,-1.9901,-1.9876,-1.9846,-1.9844,-1.9812,-1.9804,-1.9797,-1.9798,-1.9791,-1.9792,-1.9792,-1.9783,-1.9783,-1.9783,-1.9783,0,-2.0201,-2.0184,-2.0141,-2.0126,-2.0105,-2.0074,-2.0054,-2.0031,-2.0002,-1.9981,-1.9955,-1.9936,-1.9898,-1.9874,-1.985,-1.9822,-1.9815,-1.98,-1.9794,-1.9802,-1.9803,-1.979,-1.9789,-1.9782,-1.9782,-1.9782,-1.9783,0,-2.0221,-2.0191,-2.0164,-2.0122,-2.0111,-2.0097,-2.006,-2.0044,-2.002,-1.9994,-1.9986,-1.9947,-1.9917,-1.9884,-1.9843,-1.9827,-1.9799,-1.9791,-1.9811,-1.9807,-1.9801,-1.9802,-1.9792,-1.9788,-1.9783,-1.9783,-1.9783,0,-2.0224,-2.021,-2.0167,-2.0151,-2.0132,-2.0108,-2.0089,-2.0057,-2.0038,-1.9998,-1.9986,-1.9954,-1.9926,-1.9878,-1.9845,-1.9813,-1.9803,-1.9801,-1.9798,-1.9805,-1.98,-1.9801,-1.9799,-1.9803,-1.9803,-1.9803,-1.9803,0,-2.0233,-2.0218,-2.0193,-2.0162,-2.014,-2.0114,-2.0086,-2.0075,-2.0037,-2.0016,-1.9985,-1.9963,-1.992,-1.9887,-1.985,-1.9828,-1.9808,-1.9805,-1.9801,-1.9809,-1.982,-1.9812,-1.9813,-1.9805,-1.9805,-1.9805,-1.9805,-1.9805,-2.0243,-2.0229,-2.0195,-2.0167,-2.0143,-2.0117,-2.0099,-2.0073,-2.0046,-2.0009,-1.9991,-1.9959,-1.9924,-1.9872,-1.985,-1.9823,-1.9817,-1.9813,-1.9811,-1.981,-1.9811,-1.9825,-1.9816,-1.9816,-1.9816,-1.9816,-1.9816,0,-2.0249,-2.0226,-2.02,-2.0162,-2.0139,-2.0124,-2.0092,-2.0073,-2.0046,-2.0015,-1.9988,-1.9951,-1.9918,-1.9882,-1.9847,-1.9832,-1.9822,-1.9823,-1.9824,-1.9818,-1.9819,-1.9825,-1.9832,-1.9832,-1.9832,-1.9832,-1.9832,-1.9832,-2.0249,-2.0223,-2.0204,-2.0165,-2.0141,-2.011,-2.0093,-2.0068,-2.0044,-2.0003,-1.9976,-1.9953,-1.9919,-1.9881,-1.985,-1.984,-1.9827,-1.9831,-1.9818,-1.982,-1.9819,-1.9817,-1.9823,-1.9829,-1.9829,-1.9819,-1.9819,-1.9819]}]]